Regional Weather Roundup
Issued by NWS

Home | Current Version | Previous Version | Text Only | Print | Product List | Glossary On
Versions: 1 2 3 4 5 6 7 8 9 10 11 12 13 14 15 16 17 18 19 20 21 22 23 24 25 26 27
000
ASUS45 KBOU 081910
RWRCO

WEATHER ROUNDUP FOR COLORADO
NATIONAL WEATHER SERVICE DENVER/BOULDER CO
100 PM MDT SAT MAY 08 2021

NOTE: "FAIR" INDICATES FEW OR NO CLOUDS BELOW 12000 FEET WITH NO
SIGNIFICANT WEATHER AND/OR OBSTRUCTIONS TO VISIBILITY.

COZ001>005-013-030-031-082000-
...NORTHWEST COLORADO...

CITY           SKY/WX    TMP DP  RH WIND       PRES   REMARKS
CRAIG          FAIR      57  33  40 VRB3      29.94F
HAYDEN         PTSUNNY   54  31  41 NW12G21   29.95F
MEEKER         FAIR      60  28  29 NW12G20   29.91F
RANGELY        FAIR      66  22  18 W18       29.92S
RABBIT EARS PA FAIR      39  28  65 W10G20    30.05S
STEAMBOAT SPGS PTSUNNY   54  31  40 W13G23    29.93S
WALDEN         FAIR      54  25  33 SW17G25   29.96S
$$

COZ006>008-011-082000-
...WEST CENTRAL VALLEYS...

CITY           SKY/WX    TMP DP  RH WIND       PRES   REMARKS
GRAND JUNCTION FAIR      73  24  16 NW20G29   29.86F
MONTROSE       CLOUDY    64  33  31 NW21G30   29.94S
EAGLE          PTSUNNY   64  25  22 SW23G36   29.89F
RIFLE          FAIR      69  26  20 SW12G31   29.85F
DELTA          PTSUNNY   67  30  25 S14G20    29.89S
NUCLA          FAIR      67  31  25 NW17G28   29.97S
$$

COZ017>023-064>068-082000-
...SOUTHWEST COLORADO...

CITY           SKY/WX    TMP DP  RH WIND       PRES   REMARKS
DURANGO        FAIR      68  19  15 W18G29    29.91F
CORTEZ         FAIR      68  32  26 N20G38    29.93S
PAGOSA SPRINGS FAIR      64  19  17 SW14G26   29.95F
TELLURIDE      CLOUDY    50  23  34 SW10G25   30.06F
WOLF CREEK PAS CLOUDY    36  19  51 SW21G32   30.16F
$$

COZ009-010-012-014-032>034-037-058>063-082000-
...CENTRAL COLORADO...

CITY           SKY/WX    TMP DP  RH WIND       PRES   REMARKS
ASPEN          CLOUDY    45  34  65 E15G22    29.96F
BUENA VISTA    DRIZZLE   52  21  29 SW15G44   29.97R
COPPER MTN     PTSUNNY   36  27  69 S16G28    30.12R
BERTHOUD PASS  PTSUNNY   34  21  60 W32G48    30.06F WCI  20
DAKOTA HILL    FAIR      41  27  56 W16G36    29.99S
COTTONWOOD PAS CLOUDY    43  27  52 SW17G29   30.01R
GUNNISON       LGT RAIN  57  28  33 W24       29.93F
GRANBY         CLOUDY    47  32  55 W23G33    29.99R
KREMMLING      FAIR      48  36  61 W10       29.94F
LEADVILLE      LGT SNOW  34  31  88 VRB5      30.06R FOG     WCI  30
SALIDA         FAIR      68  17  14 W22G32    29.96F
SUNLIGHT       LGT RAIN  37  27  65 SW9G26    30.10F
WILKERSON PASS PTSUNNY   46  16  29 SW7G21    30.07S
$$

COZ069>075-082000-
...SAN LUIS VALLEY/SANGRE DE CRISTO MOUNTAINS...

CITY           SKY/WX    TMP DP  RH WIND       PRES   REMARKS
ALAMOSA        FAIR      69  13  11 SW21G32   29.88F
DEL NORTE      FAIR      65  20  17 W23G29    29.91F
LA VETA PASS   FAIR      52  14  22 W10G28    29.98S
SAGUACHE       CLOUDY    59  23  25 NW16G26   29.90F
$$

COZ035-036-038>040-082000-
...NORTHERN COLORADO FRONT RANGE...

CITY           SKY/WX    TMP DP  RH WIND       PRES   REMARKS
DENVER INTL AP PTSUNNY   71  33  24 NE13G21   29.72F
AURORA         PTSUNNY   70  31  23 NW15      29.73F
WATKINS        NOT AVBL
ERIE           FAIR      74  28  18 NW16G26   29.71F
BOULDER        FAIR      72  27  18 W23G32    29.72F
CENTENNIAL     PTSUNNY   70  27  20 N8G16     29.73F
BROOMFIELD     MOSUNNY   70  28  21 NW18G25   29.72F
FORT COLLINS   FAIR      75  30  19 W20G28    29.71F
LONGMONT       FAIR      76  27  16 W20G29    29.72F
$$

COZ041-046-047-076>085-087-088-082000-
...PIKES PEAK/PALMER DIVIDE AND SOUTHERN FOOTHILLS...

CITY           SKY/WX    TMP DP  RH WIND       PRES   REMARKS
COLO. SPRINGS  PTSUNNY   76  19  11 NE9       29.73F
A. F. ACADEMY  PTSUNNY   72  16  12 W21G29    29.74F
SCHRIEVER AFB  NOT AVBL
CHEYENNE MTN   FAIR      72  18  13 E7        29.73F
ELLICOTT       FAIR      75  15  10 E8        29.74F
FALCON         FAIR      74  13  10 NW15G24   29.79F
FORT CARSON    FAIR      78   9   7 W20G32    29.69F HAZE
LIMON          FAIR      72  32  23 N25G35    29.72F
MONUMENT HILL  FAIR      61  34  36 N17G28    29.82S
CANON CITY     FAIR      81  27  13 W17G28    29.71F
WALSENBURG     NOT AVBL
TRINIDAD       FAIR      80  18  10 MISG      29.73F
$$

COZ042>045-048>051-090-091-082000-
...NORTHEAST COLORADO...

CITY           SKY/WX    TMP DP  RH WIND       PRES   REMARKS
GREELEY        PTSUNNY   74  31  20 NW23      29.69F
AKRON          FAIR      72  33  24 N32G41    29.72S
BURLINGTON     FAIR      77  45  32 N22G35    29.66F
WRAY           FAIR      72  45  37 N25G36    29.68F
YUMA           FAIR      72  -8   4 NW24G30   29.70R
STERLING       FAIR      72  36  26 N25G36    29.69S
HOLYOKE        FAIR      68  48  49 N22       29.70R
FORT MORGAN    FAIR      74  29  18 N15G30    29.71F
$$

COZ086-089-092>099-082000-
...SOUTHEAST COLORADO...

CITY           SKY/WX    TMP DP  RH WIND       PRES   REMARKS
PUEBLO         FAIR      84  19   9 W21G40    29.64F
LA JUNTA       FAIR      87  14   6 W10G26    29.63F
LAMAR          NOT AVBL
SPRINGFIELD    NOT AVBL
$$



USA.gov is the U.S. government's official web portal to all federal, state and local government web resources and services.